Other Public Products
Issued by NWS Grand Forks, ND

Home | Current Version | Previous Version | Text Only | Print | Product List | Glossary On
Versions: 1 2 3 4 5 6 7 8 9 10 11 12 13 14 15 16 17 18 19 20 21 22 23 24 25 26 27 28 29 30 31 32 33 34 35 36 37 38 39 40 41 42 43 44 45 46 47 48 49 50
000
FPUS83 KFGF 271431
OPUFGF
PRAIRIE TO PINES WEATHER ROUNDUP
NATIONAL WEATHER SERVICE EASTERN NORTH DAKOTA/GRAND FORKS ND
900 AM CDT WED AUG 27 2014

 **SATELLITE DATA USED TO AUGMENT SKY COVER AT AUTOMATED STATIONS**
 *****  WEATHER ACROSS EASTERN NORTH DAKOTA  *****

CITY           SKY/WX    TMP DP  RH WIND       PRES   REMARKS
GRAND FORKS    SUNNY     56  54  93 S5        30.18S
GRAND FORKS AF SUNNY     58  57  96 SW3       30.18S
GRAND CITY NWS   N/A     57 N/A N/A SW5         N/A
BUXTON           N/A     60  59  99 CALM        N/A
DEVILS LAKE    SUNNY     57  52  82 S5        30.16S
FARGO          MOSUNNY   58  57  97 CALM      30.19S
WAHPETON ARPT  SUNNY     63  55  77 SE6       30.20S
$$

 *****  WEATHER ACROSS CENTRAL AND WESTERN NORTH DAKOTA  *****

CITY           SKY/WX    TMP DP  RH WIND       PRES   REMARKS
JAMESTOWN      CLOUDY    56  55  97 CALM      30.18S FOG
BISMARCK       FOG       53  52  96 E3        30.18R VSB 1/4
MINOT          SUNNY     59  52  77 S9        30.13S
MINOT AFB      SUNNY     57  57  99 S6        30.13S
GARRISON         N/A     56  55  97 S5        30.15S
WILLISTON      SUNNY     57  53  86 S7        30.11S
DICKINSON      SUNNY     54  52  93 SE5       30.14R
HETTINGER      SUNNY     52  51  97 S3        30.17S
$$

 *****  OTHER OBSERVATIONS NORTHEAST NORTH DAKOTA  *****

CITY           SKY/WX    TMP DP  RH WIND       PRES   REMARKS
WALHALLA         N/A     63  57  82 W7        30.15F
LANGDON        FAIR      57  55  94 S6        30.17S
CAVALIER       FAIR      59  55  88 SW3       30.16S
GRAFTON        FAIR      57  57 100 W5        30.17S
CANDO          FAIR      55  55 100 SE3       30.17F
FORT TOTTEN    NOT AVBL
ROLLA          FAIR      59  57  94 SW5       30.17S
RUGBY          FAIR      55  55 100 S5        30.16S
 ***** THE ABOVE OBSERVATIONS ARE NON NWS ARE NOT QUALITY
        CONTROLLED AND MAY MIS-REPORT RAIN FOR SNOW...
$$

 *****  OTHER OBSERVATIONS SOUTHEAST NORTH DAKOTA *****

CITY           SKY/WX    TMP DP  RH WIND       PRES   REMARKS
COOPERSTOWN    NOT AVBL
VALLEY CITY    CLOUDY    57  57 100 S3        30.19S
OAKES            N/A     61  61 100 E7        30.18S
GWINNER        SUNNY     63  61  94 E8        30.19S
SHEYENNE NWR     N/A     61  58  90 SE5       29.95
BUFFALO          N/A     59  56  92 CALM        N/A
WYNDMERE       NOT AVBL
 ***** THE ABOVE OBSERVATIONS ARE NON NWS ARE NOT QUALITY
       CONTROLLED AND MAY MIS-REPORT RAIN FOR SNOW...
$$

  *****  WEATHER ACROSS NORTHERN MINNESOTA  *****

CITY           SKY/WX    TMP DP  RH WIND       PRES   REMARKS
FLAG ISLAND    SUNNY     59  54  82 CALM      30.15F
WARROAD        FOG       50  46  87 CALM      30.19R VSB<1/4
ROSEAU         HAZE      52  46  82 SW3       30.18S VSB 1/4
HALLOCK        MOSUNNY   54  52  94 S3        30.16F
THF RVR FALLS  SUNNY     57  54  88 SW6       30.19S
HALSTAD          N/A     60  57  92 NE2         N/A
FOSSTON        SUNNY     57  55  94 SW6       30.21R
BAUDETTE       PTSUNNY   55  52  89 SW3       30.19R
WASKISH        SUNNY     59  57  94 CALM      30.19S
CROOKSTON      SUNNY     55  55 100 SW6       30.20R
$$
  *****  WEATHER ACROSS CENTRAL AND WEST MINNESOTA  *****

CITY           SKY/WX    TMP DP  RH WIND       PRES   REMARKS
BEMIDJI        SUNNY     57  54  89 W5        30.21S
PARK RAPIDS    MOSUNNY   58  56  93 CALM      30.21S
WADENA         SUNNY     61  57  88 CALM      30.21R
DETROIT LAKES  SUNNY     61  55  82 CALM      30.21S
MOORHEAD       SUNNY     61  61 100 CALM      30.20S
FERGUS FALLS   MOSUNNY   63  54  72 SE3       30.20S
ELBOW LAKE     FAIR      62  57  82 SE6       30.20R
MORRIS MN      SUNNY     64  59  82 SE7       30.19S
STAPLES        MOSUNNY   61  55  82 CALM      30.21S
WHEATON        SUNNY     59  57  94 SE7       30.21S
$$
  *****  WEATHER ELSEWHERE ACROSS MINNESOTA  *****

CITY           SKY/WX    TMP DP  RH WIND       PRES   REMARKS
DULUTH         SUNNY     58  49  72 N6        30.21R
INTRNTL FALLS  SUNNY     53  49  86 CALM      30.19S
ELY            SUNNY     55  48  76 CALM      30.21S
CLOQUET        SUNNY     59  52  77 NW3       30.22R
BRAINERD       MOSUNNY   60  56  86 CALM      30.22R
HIBBING        SUNNY     57  50  77 CALM      30.22R
ALEXANDRIA     SUNNY     61  56  83 SE8       30.22S
SAINT CLOUD    SUNNY     62  55  77 SE5       30.21S
MINNEAPOLIS    MOSUNNY   65  55  70 E8        30.21R
$$

  *****  WEATHER ACROSS SOUTH DAKOTA  *****

CITY           SKY/WX    TMP DP  RH WIND       PRES   REMARKS
SIOUX FALLS    CLOUDY    62  56  80 E7        30.18S
BROOKINGS      NOT AVBL
WATERTOWN      CLOUDY    61  55  81 E8        30.17F
HURON          CLOUDY    62  57  83 SE8       30.16R
SISSETON         N/A     61  59  93 VRB3      30.18S
ABERDEEN       SUNNY     59  56  89 SE6       30.17S
MITCHELL       CLOUDY    62  59  90 SE10      30.17R
PIERRE         CLOUDY    61  61 100 E6        30.11S FOG
MOBRIDGE       SUNNY     58  56  93 E7        30.14R
RAPID CITY     MOSUNNY   57  54  89 E5        30.16S
$$

  *****  SOME WEATHER IN NEARBY STATES *****

CITY           SKY/WX    TMP DP  RH WIND       PRES   REMARKS
GLASGOW MT     SUNNY     58  52  80 SE14      30.04S
GREAT FALLS MT SUNNY     59  46  62 SW7       30.08R
CHEYENNE WY    LGT RAIN  57  53  86 NW7       30.21F FOG
SCOTTSBLUFF NE CLOUDY    65  63  93 NE8       30.14R
OMAHA NE       CLOUDY    69  65  86 E7        30.10F THUNDER
DES MOINES IA  CLOUDY    69  63  81 E6        30.15R
DAVENPORT IA   PTSUNNY   70  60  70 NE9       30.16S
CHICAGO IL     MOSUNNY   74  60  61 NE5       30.14S
EAU CLAIRE WI  MOSUNNY   64  57  78 NE6       30.20S
LA CROSSE WI   MOSUNNY   68  59  73 N6        30.19R
$$

  *****  SOME NATIONAL WEATHER *****

CITY           SKY/WX    TMP DP  RH WIND       PRES   REMARKS
LA GUARDIA NY  SUNNY     81  61  50 S7        30.02F
RALEIGH NC     MOSUNNY   72  62  71 N6        30.08F
ATLANTA GA     MOSUNNY   74  61  63 E6        30.13S
NEW ORLEANS LA MOSUNNY   85  75  72 NE13      30.01R HX  93
OKLAHOMA CITY  MOSUNNY   77  69  76 S8        30.12R
ALBUQUERQUE NM MOSUNNY   62  57  83 W3        30.31R
SALT LAKE CITY PTSUNNY   60  56  86 SE5       30.21R
LOS ANGELES CA CLEAR     69  63  81 N3        30.03R
BOISE ID       CLEAR     63  45  51 E3        30.13R
SEATTLE WA     CLEAR     62  56  80 CALM      30.04R
$$

*** WEATHER ACROSS MANITOBA...SASKATCHEWAN AND ONTARIO ***
                ***ONTARIO***

CITY           SKY/WX    TMP DP  RH WIND       PRES   REMARKS
GERALDTON      PTSUNNY   55  48  76 NW8       30.11S
THUNDER BAY    PTSUNNY   61  54  77 NW6       30.17R
SIOUX LOOKOUT  PTSUNNY   57  48  72 W5        30.17S
TORONTO        MOSUNNY   68  55  64 NW10      30.07S
BIG TROUT LK   CLOUDY    50  46  87 NW5       30.10S
PICKLE LAKE    PTSUNNY   52  43  71 W6        30.14R
DRYDEN         SUNNY     54  50  87 W3        30.18S
KENORA         MOSUNNY   57  48  72 S5        30.18S
$$
                *** MANITOBA***

CITY           SKY/WX    TMP DP  RH WIND       PRES   REMARKS
BRANDON        MOSUNNY   55  52  88 SW6       30.13S
DAUPHIN        SUNNY     63  52  67 SW12G17   30.04S
ISLAND LAKE    MOSUNNY   50  48  93 CALM      30.06S
PILOT MOUND      N/A     55  54  94 SW5         N/A
THE PAS        PTSUNNY   61  52  72 S9        29.86R
THOMPSON       MOSUNNY   57  54  88 S8        29.86F
WINNIPEG       SUNNY     55  48  76 S7        30.15R
LYNN LAKE      PTSUNNY   59  52  77 MISG      29.75F
CHURCHILL      PTSUNNY   52  45  76 S18G26    29.83F
GILLAM         MOSUNNY   50  48  93 S10       29.95F
$$
                ***SASKATCHEWAN***

CITY           SKY/WX    TMP DP  RH WIND       PRES   REMARKS
ESTEVAN        MOSUNNY   59  57  94 SW8       30.10S
KINDERSLEY     MOSUNNY   59  50  72 S7        29.90F
LLOYDMINSTER   PTSUNNY   59  50  72 SW9       29.85S
PRINCE ALBERT  MOSUNNY   59  54  82 SW3       29.88R
REGINA         SUNNY     55  50  82 SE9       30.03S


USA.gov is the U.S. government's official web portal to all federal, state and local government web resources and services.